Time,TemperatureF,DewpointF,PressureIn,WindDirection,WindDirectionDegrees,WindSpeedMPH,WindSpeedGustMPH,Humidity,HourlyPrecipIn,Conditions,Clouds,dailyrainin,SolarRadiationWatts/m^2,SoftwareType,DateUTC
2013-03-02 00:00:00,37.8,29.8,29.72,NW,314,4.0,14.0,73,0.00,,,0.00,0.0,meteohub,2013-03-02 05:00:00,
2013-03-02 00:01:00,37.8,29.8,29.73,North,5,4.0,14.0,73,0.00,,,0.00,0.0,meteohub,2013-03-02 05:01:00,
2013-03-02 00:02:00,37.8,29.8,29.73,NNW,347,6.0,14.0,73,0.00,,,0.00,0.0,meteohub,2013-03-02 05:02:00,
2013-03-02 00:07:00,37.8,29.8,29.72,NW,306,5.0,14.0,73,0.00,,,0.00,0.0,meteohub,2013-03-02 05:07:00,
2013-03-02 00:12:00,37.8,30.2,29.73,NW,315,5.0,15.0,74,0.00,,,0.00,0.0,meteohub,2013-03-02 05:12:00,
2013-03-02 00:17:00,37.8,29.8,29.73,NNW,345,5.0,15.0,73,0.00,,,0.00,0.0,meteohub,2013-03-02 05:17:00,
2013-03-02 00:22:00,37.8,29.8,29.72,NNW,333,4.0,15.0,73,0.00,,,0.00,0.0,meteohub,2013-03-02 05:22:00,
2013-03-02 00:27:00,37.6,29.7,29.72,NW,311,7.0,13.0,73,0.00,,,0.00,0.0,meteohub,2013-03-02 05:27:00,
2013-03-02 00:32:00,37.6,29.7,29.72,North,350,9.0,15.0,73,0.00,,,0.00,0.0,meteohub,2013-03-02 05:32:00,
2013-03-02 00:37:00,37.6,29.7,29.72,North,5,6.0,15.0,73,0.00,,,0.00,0.0,meteohub,2013-03-02 05:37:00,
2013-03-02 00:43:00,37.6,29.7,29.72,NNW,346,5.0,15.0,73,0.00,,,0.00,0.0,meteohub,2013-03-02 05:43:00,
2013-03-02 00:48:00,37.4,29.5,29.72,WNW,286,7.0,14.0,73,0.00,,,0.00,0.0,meteohub,2013-03-02 05:48:00,
2013-03-02 00:53:00,37.2,29.3,29.73,NW,316,9.0,14.0,73,0.00,,,0.00,0.0,meteohub,2013-03-02 05:53:00,
2013-03-02 00:58:00,37.2,29.3,29.72,NNW,329,4.0,13.0,73,0.00,,,0.00,0.0,meteohub,2013-03-02 05:58:00,
2013-03-02 01:03:00,37.0,29.1,29.72,NW,324,4.0,13.0,73,0.00,,,0.00,0.0,meteohub,2013-03-02 06:03:00,
2013-03-02 01:08:00,36.9,28.9,29.72,NNW,348,5.0,12.0,73,0.00,,,0.00,0.0,meteohub,2013-03-02 06:08:00,
2013-03-02 01:13:00,36.9,29.3,29.72,NNW,336,7.0,12.0,74,0.00,,,0.00,0.0,meteohub,2013-03-02 06:13:00,
2013-03-02 01:19:00,36.7,29.1,29.72,NNW,329,5.0,9.0,74,0.00,,,0.00,0.0,meteohub,2013-03-02 06:19:00,
2013-03-02 01:24:00,36.3,28.8,29.72,NNW,330,11.0,11.0,74,0.00,,,0.00,0.0,meteohub,2013-03-02 06:24:00,
2013-03-02 01:29:00,36.3,28.8,29.72,North,0,3.0,12.0,74,0.00,,,0.00,0.0,meteohub,2013-03-02 06:29:00,
2013-03-02 01:34:00,36.1,28.9,29.72,NW,317,2.0,12.0,75,0.00,,,0.00,0.0,meteohub,2013-03-02 06:34:00,
2013-03-02 01:39:00,36.1,28.9,29.72,North,355,7.0,12.0,75,0.00,,,0.00,0.0,meteohub,2013-03-02 06:39:00,
2013-03-02 01:44:00,36.0,28.8,29.72,North,0,4.0,12.0,75,0.00,,,0.00,0.0,meteohub,2013-03-02 06:44:00,
2013-03-02 01:49:00,36.0,28.8,29.72,NNW,331,2.0,12.0,75,0.00,,,0.00,0.0,meteohub,2013-03-02 06:49:00,
2013-03-02 01:54:00,36.0,28.8,29.71,NNW,345,4.0,9.0,75,0.00,,,0.00,0.0,meteohub,2013-03-02 06:54:00,
2013-03-02 02:00:00,36.0,28.8,29.71,NW,325,8.0,9.0,75,0.00,,,0.00,0.0,meteohub,2013-03-02 07:00:00,
2013-03-02 02:05:00,36.0,28.8,29.71,NNE,28,7.0,13.0,75,0.00,,,0.00,0.0,meteohub,2013-03-02 07:05:00,
2013-03-02 02:10:00,36.0,28.8,29.71,NW,324,5.0,13.0,75,0.00,,,0.00,0.0,meteohub,2013-03-02 07:10:00,
2013-03-02 02:15:00,35.8,28.6,29.72,NW,315,7.0,11.0,75,0.00,,,0.00,0.0,meteohub,2013-03-02 07:15:00,
2013-03-02 02:20:00,35.8,28.6,29.71,NW,319,6.0,11.0,75,0.00,,,0.00,0.0,meteohub,2013-03-02 07:20:00,
2013-03-02 02:25:00,35.8,28.6,29.71,NW,324,7.0,12.0,75,0.00,,,0.00,0.0,meteohub,2013-03-02 07:25:00,
2013-03-02 02:31:00,35.8,28.6,29.71,NNW,335,5.0,12.0,75,0.00,,,0.00,0.0,meteohub,2013-03-02 07:31:00,
2013-03-02 02:36:00,35.8,28.6,29.70,NW,321,4.0,12.0,75,0.00,,,0.00,0.0,meteohub,2013-03-02 07:36:00,
2013-03-02 02:41:00,35.6,28.4,29.71,NW,316,6.0,12.0,75,0.00,,,0.00,0.0,meteohub,2013-03-02 07:41:00,
2013-03-02 02:46:00,35.4,28.0,29.70,North,355,4.0,12.0,74,0.00,,,0.00,0.0,meteohub,2013-03-02 07:46:00,
2013-03-02 02:51:00,35.2,28.0,29.71,North,350,1.0,12.0,75,0.00,,,0.00,0.0,meteohub,2013-03-02 07:51:00,
2013-03-02 02:56:00,35.1,27.9,29.71,North,355,6.0,12.0,75,0.00,,,0.00,0.0,meteohub,2013-03-02 07:56:00,
2013-03-02 03:01:00,34.9,27.7,29.71,North,9,4.0,10.0,75,0.00,,,0.00,0.0,meteohub,2013-03-02 08:01:00,
2013-03-02 03:07:00,34.7,27.7,29.71,North,5,4.0,8.0,75,0.00,,,0.00,0.0,meteohub,2013-03-02 08:07:00,
2013-03-02 03:12:00,34.5,27.7,29.71,NNW,348,4.0,8.0,76,0.00,,,0.00,0.0,meteohub,2013-03-02 08:12:00,
2013-03-02 03:17:00,34.5,27.7,29.71,North,5,3.0,8.0,76,0.00,,,0.00,0.0,meteohub,2013-03-02 08:17:00,
2013-03-02 03:22:00,34.3,27.5,29.71,NNW,327,5.0,8.0,76,0.00,,,0.00,0.0,meteohub,2013-03-02 08:22:00,
2013-03-02 03:27:00,34.3,27.5,29.71,NNW,342,4.0,8.0,76,0.00,,,0.00,0.0,meteohub,2013-03-02 08:27:00,
2013-03-02 03:32:00,34.2,27.3,29.71,NNW,329,5.0,9.0,76,0.00,,,0.00,0.0,meteohub,2013-03-02 08:32:00,
2013-03-02 03:37:00,34.2,27.3,29.71,NW,317,5.0,9.0,76,0.00,,,0.00,0.0,meteohub,2013-03-02 08:37:00,
2013-03-02 03:42:00,34.2,27.3,29.71,NNW,329,10.0,10.0,76,0.00,,,0.00,0.0,meteohub,2013-03-02 08:42:00,
2013-03-02 03:47:00,34.2,27.3,29.71,NNW,338,7.0,12.0,76,0.00,,,0.00,0.0,meteohub,2013-03-02 08:47:00,
2013-03-02 03:52:00,34.2,27.3,29.71,NNW,330,5.0,13.0,76,0.00,,,0.00,0.0,meteohub,2013-03-02 08:52:00,
2013-03-02 03:58:00,34.2,27.3,29.71,NNW,346,7.0,13.0,76,0.00,,,0.00,0.0,meteohub,2013-03-02 08:58:00,
2013-03-02 04:03:00,34.2,27.3,29.71,NNW,330,7.0,13.0,76,0.00,,,0.00,0.0,meteohub,2013-03-02 09:03:00,
2013-03-02 04:08:00,34.2,27.3,29.72,North,5,7.0,12.0,76,0.00,,,0.00,0.0,meteohub,2013-03-02 09:08:00,
2013-03-02 04:13:00,34.2,27.3,29.72,North,5,3.0,12.0,76,0.00,,,0.00,0.0,meteohub,2013-03-02 09:13:00,
2013-03-02 04:18:00,34.3,27.5,29.71,NNW,340,5.0,12.0,76,0.00,,,0.00,0.0,meteohub,2013-03-02 09:18:00,
2013-03-02 04:23:00,34.3,27.5,29.72,NNW,331,10.0,12.0,76,0.00,,,0.00,0.0,meteohub,2013-03-02 09:23:00,
2013-03-02 04:28:00,34.3,27.3,29.72,NW,324,6.0,11.0,75,0.00,,,0.00,0.0,meteohub,2013-03-02 09:28:00,
2013-03-02 04:33:00,34.5,27.5,29.72,NNW,327,9.0,12.0,75,0.00,,,0.00,0.0,meteohub,2013-03-02 09:33:00,
2013-03-02 04:38:00,34.5,27.5,29.72,NW,319,2.0,12.0,75,0.00,,,0.00,0.0,meteohub,2013-03-02 09:38:00,
2013-03-02 04:44:00,34.5,27.5,29.72,NW,323,5.0,10.0,75,0.00,,,0.00,0.0,meteohub,2013-03-02 09:44:00,
2013-03-02 04:49:00,34.5,27.5,29.72,NW,305,7.0,10.0,75,0.00,,,0.00,0.0,meteohub,2013-03-02 09:49:00,
2013-03-02 04:54:00,34.5,27.1,29.72,NNE,12,4.0,10.0,74,0.00,,,0.00,0.0,meteohub,2013-03-02 09:54:00,
2013-03-02 04:59:00,34.5,27.1,29.72,NW,319,8.0,10.0,74,0.00,,,0.00,0.0,meteohub,2013-03-02 09:59:00,
2013-03-02 05:04:00,34.5,27.1,29.72,West,277,6.0,10.0,74,0.00,,,0.00,0.0,meteohub,2013-03-02 10:04:00,
2013-03-02 05:09:00,34.5,27.1,29.72,NW,319,7.0,10.0,74,0.00,,,0.00,0.0,meteohub,2013-03-02 10:09:00,
2013-03-02 05:15:00,34.5,26.8,29.72,NW,318,5.0,12.0,73,0.00,,,0.00,0.0,meteohub,2013-03-02 10:15:00,
2013-03-02 05:20:00,34.5,26.8,29.72,NNW,327,6.0,14.0,73,0.00,,,0.00,0.0,meteohub,2013-03-02 10:20:00,
2013-03-02 05:25:00,34.5,26.8,29.72,NW,316,6.0,14.0,73,0.00,,,0.00,0.0,meteohub,2013-03-02 10:25:00,
2013-03-02 05:30:00,34.5,26.8,29.71,NW,313,5.0,13.0,73,0.00,,,0.00,0.0,meteohub,2013-03-02 10:30:00,
2013-03-02 05:35:00,34.5,26.8,29.71,NNW,333,5.0,13.0,73,0.00,,,0.00,0.0,meteohub,2013-03-02 10:35:00,
2013-03-02 05:40:00,34.5,26.8,29.71,NNW,338,6.0,11.0,73,0.00,,,0.00,0.0,meteohub,2013-03-02 10:40:00,
2013-03-02 05:45:00,34.5,26.8,29.72,NW,317,8.0,11.0,73,0.00,,,0.00,0.0,meteohub,2013-03-02 10:45:00,
2013-03-02 05:50:00,34.5,26.8,29.71,NNW,330,8.0,14.0,73,0.00,,,0.00,0.0,meteohub,2013-03-02 10:50:00,
2013-03-02 05:55:00,34.5,26.8,29.72,WNW,295,6.0,14.0,73,0.00,,,0.00,0.0,meteohub,2013-03-02 10:55:00,
2013-03-02 06:01:00,34.5,26.8,29.72,NNW,339,6.0,14.0,73,0.00,,,0.00,0.0,meteohub,2013-03-02 11:01:00,
2013-03-02 06:06:00,34.5,26.8,29.72,NW,325,6.0,12.0,73,0.00,,,0.00,0.0,meteohub,2013-03-02 11:06:00,
2013-03-02 06:11:00,34.7,27.0,29.71,NNW,328,8.0,13.0,73,0.00,,,0.00,0.0,meteohub,2013-03-02 11:11:00,
2013-03-02 06:16:00,34.9,27.1,29.72,NW,324,14.0,14.0,73,0.00,,,0.00,0.0,meteohub,2013-03-02 11:16:00,
2013-03-02 06:21:00,34.9,27.1,29.72,NW,309,4.0,17.0,73,0.00,,,0.00,0.0,meteohub,2013-03-02 11:21:00,
2013-03-02 06:26:00,34.9,27.1,29.72,NW,308,11.0,17.0,73,0.00,,,0.00,0.0,meteohub,2013-03-02 11:26:00,
2013-03-02 06:31:00,35.1,27.0,29.72,NNW,348,9.0,17.0,72,0.00,,,0.00,5.0,meteohub,2013-03-02 11:31:00,
2013-03-02 06:37:00,34.9,26.8,29.72,NNW,331,1.0,15.0,72,0.00,,,0.00,7.0,meteohub,2013-03-02 11:37:00,
2013-03-02 06:42:00,34.9,26.8,29.72,WNW,292,8.0,15.0,72,0.00,,,0.00,11.0,meteohub,2013-03-02 11:42:00,
2013-03-02 06:47:00,35.1,27.0,29.72,NW,323,4.0,12.0,72,0.00,,,0.00,16.0,meteohub,2013-03-02 11:47:00,
2013-03-02 06:52:00,35.1,27.0,29.72,North,355,4.0,13.0,72,0.00,,,0.00,19.0,meteohub,2013-03-02 11:52:00,
2013-03-02 06:57:00,35.1,27.0,29.72,WNW,303,8.0,13.0,72,0.00,,,0.00,23.0,meteohub,2013-03-02 11:57:00,
2013-03-02 07:02:00,35.1,27.0,29.72,NNW,331,9.0,13.0,72,0.00,,,0.00,28.0,meteohub,2013-03-02 12:02:00,
2013-03-02 07:07:00,35.2,26.8,29.73,NNW,336,8.0,13.0,71,0.00,,,0.00,37.0,meteohub,2013-03-02 12:07:00,
2013-03-02 07:12:00,35.4,27.3,29.72,North,351,6.0,13.0,72,0.00,,,0.00,44.0,meteohub,2013-03-02 12:12:00,
2013-03-02 07:17:00,35.4,27.3,29.72,NW,306,8.0,11.0,72,0.00,,,0.00,51.0,meteohub,2013-03-02 12:17:00,
2013-03-02 07:22:00,35.4,27.0,29.72,NW,321,5.0,13.0,71,0.00,,,0.00,54.0,meteohub,2013-03-02 12:22:00,
2013-03-02 07:27:00,35.6,27.1,29.72,NW,306,9.0,13.0,71,0.00,,,0.00,62.0,meteohub,2013-03-02 12:27:00,
2013-03-02 07:32:00,35.8,27.3,29.73,North,351,6.0,13.0,71,0.00,,,0.00,74.0,meteohub,2013-03-02 12:32:00,
2013-03-02 07:37:00,35.8,27.3,29.73,NNW,329,5.0,13.0,71,0.00,,,0.00,84.0,meteohub,2013-03-02 12:37:00,
2013-03-02 07:42:00,35.8,27.3,29.73,NW,321,7.0,13.0,71,0.00,,,0.00,88.0,meteohub,2013-03-02 12:42:00,
2013-03-02 07:47:00,36.0,27.1,29.73,NW,315,5.0,13.0,70,0.00,,,0.00,105.0,meteohub,2013-03-02 12:47:00,
2013-03-02 07:52:00,36.1,27.3,29.73,NNW,338,6.0,13.0,70,0.00,,,0.00,114.0,meteohub,2013-03-02 12:52:00,
2013-03-02 07:57:00,36.1,27.3,29.73,WNW,290,7.0,12.0,70,0.00,,,0.00,107.0,meteohub,2013-03-02 12:57:00,
2013-03-02 08:02:00,36.1,27.3,29.73,West,265,7.0,12.0,70,0.00,,,0.00,130.0,meteohub,2013-03-02 13:02:00,
2013-03-02 08:07:00,36.0,27.1,29.73,WNW,299,7.0,13.0,70,0.00,,,0.00,183.0,meteohub,2013-03-02 13:07:00,
2013-03-02 08:12:00,36.0,27.1,29.73,North,355,5.0,14.0,70,0.00,,,0.00,107.0,meteohub,2013-03-02 13:12:00,
2013-03-02 08:17:00,36.3,27.5,29.72,NW,325,9.0,14.0,70,0.00,,,0.00,309.0,meteohub,2013-03-02 13:17:00,
2013-03-02 08:22:00,37.2,28.0,29.72,WNW,300,11.0,13.0,69,0.00,,,0.00,315.0,meteohub,2013-03-02 13:22:00,
2013-03-02 08:27:00,37.8,28.2,29.72,NNW,343,9.0,17.0,68,0.00,,,0.00,336.0,meteohub,2013-03-02 13:27:00,
2013-03-02 08:32:00,37.9,28.0,29.72,North,11,5.0,17.0,67,0.00,,,0.00,260.0,meteohub,2013-03-02 13:32:00,
2013-03-02 08:37:00,38.1,28.2,29.72,NNW,329,14.0,17.0,67,0.00,,,0.00,374.0,meteohub,2013-03-02 13:37:00,
2013-03-02 08:42:00,38.7,28.2,29.72,NW,318,14.0,18.0,66,0.00,,,0.00,413.0,meteohub,2013-03-02 13:42:00,
2013-03-02 08:47:00,38.7,27.9,29.72,NNW,339,11.0,18.0,65,0.00,,,0.00,387.0,meteohub,2013-03-02 13:47:00,
2013-03-02 08:52:00,38.8,28.0,29.71,NNW,333,18.0,18.0,65,0.00,,,0.00,399.0,meteohub,2013-03-02 13:52:00,
2013-03-02 08:57:00,39.0,27.9,29.72,NNE,15,9.0,19.0,64,0.00,,,0.00,411.0,meteohub,2013-03-02 13:57:00,
2013-03-02 09:02:00,39.4,28.6,29.71,NNW,348,10.0,20.0,65,0.00,,,0.00,431.0,meteohub,2013-03-02 14:02:00,
2013-03-02 09:07:00,39.9,28.4,29.71,NNW,343,5.0,20.0,63,0.00,,,0.00,441.0,meteohub,2013-03-02 14:07:00,
2013-03-02 09:12:00,40.5,28.4,29.71,WNW,299,14.0,19.0,62,0.00,,,0.00,454.0,meteohub,2013-03-02 14:12:00,
2013-03-02 09:17:00,40.6,28.6,29.71,WNW,296,16.0,19.0,62,0.00,,,0.00,503.0,meteohub,2013-03-02 14:17:00,
2013-03-02 09:22:00,40.5,28.0,29.71,NNW,342,10.0,23.0,61,0.00,,,0.00,591.0,meteohub,2013-03-02 14:22:00,
2013-03-02 09:27:00,40.6,28.2,29.71,NNW,334,12.0,23.0,61,0.00,,,0.00,392.0,meteohub,2013-03-02 14:27:00,
2013-03-02 09:32:00,40.8,28.0,29.71,NW,321,12.0,23.0,60,0.00,,,0.00,615.0,meteohub,2013-03-02 14:32:00,
2013-03-02 09:37:00,40.8,28.4,29.71,North,350,10.0,18.0,61,0.00,,,0.00,548.0,meteohub,2013-03-02 14:37:00,
2013-03-02 09:42:00,41.2,28.8,29.71,NNW,340,7.0,17.0,61,0.00,,,0.00,424.0,meteohub,2013-03-02 14:42:00,
2013-03-02 09:47:00,41.5,28.8,29.71,NNW,336,8.0,17.0,60,0.00,,,0.00,478.0,meteohub,2013-03-02 14:47:00,
2013-03-02 09:52:00,41.2,28.4,29.70,West,274,9.0,18.0,60,0.00,,,0.00,316.0,meteohub,2013-03-02 14:52:00,
2013-03-02 09:57:00,40.8,28.0,29.70,NNW,329,8.0,18.0,60,0.00,,,0.00,295.0,meteohub,2013-03-02 14:57:00,
2013-03-02 10:02:00,40.8,28.0,29.70,NNE,26,5.0,18.0,60,0.00,,,0.00,299.0,meteohub,2013-03-02 15:02:00,
2013-03-02 10:07:00,40.8,28.0,29.70,NE,36,16.0,16.0,60,0.00,,,0.00,304.0,meteohub,2013-03-02 15:07:00,
2013-03-02 10:12:00,40.6,27.9,29.71,NW,323,11.0,17.0,60,0.00,,,0.00,316.0,meteohub,2013-03-02 15:12:00,
2013-03-02 10:17:00,40.6,27.9,29.71,NNW,346,6.0,17.0,60,0.00,,,0.00,308.0,meteohub,2013-03-02 15:17:00,
2013-03-02 10:22:00,40.5,27.3,29.71,NW,317,8.0,18.0,59,0.00,,,0.00,294.0,meteohub,2013-03-02 15:22:00,
2013-03-02 10:27:00,40.5,27.3,29.71,NW,315,9.0,18.0,59,0.00,,,0.00,274.0,meteohub,2013-03-02 15:27:00,
2013-03-02 10:32:00,40.6,27.9,29.71,NW,324,10.0,18.0,60,0.00,,,0.00,299.0,meteohub,2013-03-02 15:32:00,
2013-03-02 10:37:00,40.5,27.7,29.70,NE,34,10.0,17.0,60,0.00,,,0.00,304.0,meteohub,2013-03-02 15:37:00,
2013-03-02 10:42:00,40.8,27.7,29.70,NNW,329,8.0,17.0,59,0.00,,,0.00,288.0,meteohub,2013-03-02 15:42:00,
2013-03-02 10:47:00,40.6,27.5,29.70,NNW,333,9.0,17.0,59,0.00,,,0.00,329.0,meteohub,2013-03-02 15:47:00,
2013-03-02 10:52:00,40.6,27.5,29.70,West,281,12.0,15.0,59,0.00,,,0.00,394.0,meteohub,2013-03-02 15:52:00,
2013-03-02 10:57:00,40.5,27.3,29.70,NW,313,13.0,17.0,59,0.00,,,0.00,355.0,meteohub,2013-03-02 15:57:00,
2013-03-02 11:02:00,40.5,27.7,29.70,WNW,302,16.0,18.0,60,0.00,,,0.00,371.0,meteohub,2013-03-02 16:02:00,
2013-03-02 11:07:00,40.8,27.7,29.70,NNW,340,11.0,18.0,59,0.00,,,0.00,381.0,meteohub,2013-03-02 16:07:00,
2013-03-02 11:12:00,40.5,26.8,29.70,NNW,335,8.0,18.0,58,0.00,,,0.00,313.0,meteohub,2013-03-02 16:12:00,
2013-03-02 11:17:00,40.6,27.5,29.70,NNE,16,6.0,18.0,59,0.00,,,0.00,323.0,meteohub,2013-03-02 16:17:00,
2013-03-02 11:22:00,40.8,27.7,29.70,NW,311,9.0,16.0,59,0.00,,,0.00,350.0,meteohub,2013-03-02 16:22:00,
2013-03-02 11:27:00,40.5,26.8,29.70,West,279,8.0,19.0,58,0.00,,,0.00,292.0,meteohub,2013-03-02 16:27:00,
2013-03-02 11:32:00,39.7,27.0,29.70,WNW,294,11.0,19.0,60,0.00,,,0.00,301.0,meteohub,2013-03-02 16:32:00,
2013-03-02 11:37:00,39.9,26.8,29.69,NW,313,6.0,19.0,59,0.00,,,0.00,290.0,meteohub,2013-03-02 16:37:00,
2013-03-02 11:42:00,40.8,27.7,29.70,NW,315,7.0,17.0,59,0.00,,,0.00,276.0,meteohub,2013-03-02 16:42:00,
2013-03-02 11:47:00,40.8,27.1,29.70,North,355,6.0,17.0,58,0.00,,,0.00,276.0,meteohub,2013-03-02 16:47:00,
2013-03-02 11:52:00,41.2,27.5,29.69,NW,309,6.0,16.0,58,0.00,,,0.00,290.0,meteohub,2013-03-02 16:52:00,
2013-03-02 11:57:00,41.2,27.1,29.69,NW,313,6.0,14.0,57,0.00,,,0.00,265.0,meteohub,2013-03-02 16:57:00,
2013-03-02 12:02:00,41.0,27.3,29.69,NW,314,9.0,16.0,58,0.00,,,0.00,246.0,meteohub,2013-03-02 17:02:00,
2013-03-02 12:07:00,41.2,27.5,29.68,NNW,328,2.0,16.0,58,0.00,,,0.00,223.0,meteohub,2013-03-02 17:07:00,
2013-03-02 12:12:00,41.2,27.1,29.68,North,351,2.0,15.0,57,0.00,,,0.00,214.0,meteohub,2013-03-02 17:12:00,
2013-03-02 12:17:00,41.2,27.1,29.68,NW,317,4.0,15.0,57,0.00,,,0.00,188.0,meteohub,2013-03-02 17:17:00,
2013-03-02 12:22:00,41.2,27.5,29.68,North,0,5.0,15.0,58,0.00,,,0.00,181.0,meteohub,2013-03-02 17:22:00,
2013-03-02 12:27:00,41.4,27.7,29.68,WNW,284,5.0,12.0,58,0.00,,,0.00,179.0,meteohub,2013-03-02 17:27:00,
2013-03-02 12:32:00,40.5,26.8,29.68,NNW,334,4.0,14.0,58,0.00,,,0.00,181.0,meteohub,2013-03-02 17:32:00,
2013-03-02 12:37:00,40.6,27.5,29.68,NNE,28,5.0,14.0,59,0.00,,,0.00,185.0,meteohub,2013-03-02 17:37:00,
2013-03-02 12:42:00,41.4,27.7,29.68,NW,326,4.0,11.0,58,0.00,,,0.00,185.0,meteohub,2013-03-02 17:42:00,
2013-03-02 12:47:00,41.4,27.7,29.68,NW,315,4.0,11.0,58,0.00,,,0.00,197.0,meteohub,2013-03-02 17:47:00,
2013-03-02 12:52:00,41.4,27.7,29.68,NNW,337,5.0,11.0,58,0.00,,,0.00,190.0,meteohub,2013-03-02 17:52:00,
2013-03-02 12:57:00,41.2,27.1,29.68,NW,326,5.0,9.0,57,0.00,,,0.00,190.0,meteohub,2013-03-02 17:57:00,
2013-03-02 13:02:00,40.8,26.8,29.68,NW,320,6.0,11.0,57,0.00,,,0.00,186.0,meteohub,2013-03-02 18:02:00,
2013-03-02 13:07:00,41.4,27.7,29.68,NNW,331,5.0,11.0,58,0.00,,,0.00,183.0,meteohub,2013-03-02 18:07:00,
2013-03-02 13:12:00,41.7,28.0,29.68,NNW,342,8.0,11.0,58,0.00,,,0.00,192.0,meteohub,2013-03-02 18:12:00,
2013-03-02 13:17:00,41.4,27.3,29.67,WNW,290,4.0,10.0,57,0.00,,,0.00,190.0,meteohub,2013-03-02 18:17:00,
2013-03-02 13:22:00,41.4,27.3,29.68,NNW,329,7.0,10.0,57,0.00,,,0.00,179.0,meteohub,2013-03-02 18:22:00,
2013-03-02 13:27:00,41.4,27.3,29.68,NW,315,4.0,10.0,57,0.00,,,0.00,190.0,meteohub,2013-03-02 18:27:00,
2013-03-02 13:33:00,40.8,26.8,29.67,NNW,329,6.0,12.0,57,0.00,,,0.00,176.0,meteohub,2013-03-02 18:33:00,
2013-03-02 13:38:00,40.6,27.0,29.67,SW,234,2.0,12.0,58,0.00,,,0.00,172.0,meteohub,2013-03-02 18:38:00,
2013-03-02 13:43:00,40.8,27.1,29.67,NW,321,8.0,12.0,58,0.00,,,0.00,169.0,meteohub,2013-03-02 18:43:00,
2013-03-02 13:48:00,41.4,27.3,29.67,NW,311,6.0,13.0,57,0.00,,,0.00,178.0,meteohub,2013-03-02 18:48:00,
2013-03-02 13:53:00,41.5,27.5,29.67,NNE,14,7.0,13.0,57,0.00,,,0.00,181.0,meteohub,2013-03-02 18:53:00,
2013-03-02 13:58:00,41.9,28.2,29.66,North,11,3.0,13.0,58,0.00,,,0.00,172.0,meteohub,2013-03-02 18:58:00,
2013-03-02 14:04:00,41.9,27.9,29.67,NNE,23,4.0,10.0,57,0.00,,,0.00,171.0,meteohub,2013-03-02 19:04:00,
2013-03-02 14:09:00,42.3,27.7,29.66,WNW,302,6.0,9.0,56,0.00,,,0.00,179.0,meteohub,2013-03-02 19:09:00,
2013-03-02 14:14:00,41.4,26.8,29.66,NW,305,4.0,11.0,56,0.00,,,0.00,169.0,meteohub,2013-03-02 19:14:00,
2013-03-02 14:19:00,41.5,27.9,29.66,WNW,294,2.0,11.0,58,0.00,,,0.00,181.0,meteohub,2013-03-02 19:19:00,
2013-03-02 14:24:00,41.7,27.7,29.66,NNE,17,8.0,11.0,57,0.00,,,0.00,181.0,meteohub,2013-03-02 19:24:00,
2013-03-02 14:29:00,41.7,27.1,29.66,WSW,241,4.0,12.0,56,0.00,,,0.00,160.0,meteohub,2013-03-02 19:29:00,
2013-03-02 14:35:00,40.8,26.8,29.65,WNW,298,6.0,12.0,57,0.00,,,0.00,141.0,meteohub,2013-03-02 19:35:00,
2013-03-02 14:40:00,40.8,27.1,29.66,NW,317,7.0,14.0,58,0.00,,,0.00,128.0,meteohub,2013-03-02 19:40:00,
2013-03-02 14:45:00,41.5,27.9,29.65,NW,325,2.0,14.0,58,0.00,,,0.00,134.0,meteohub,2013-03-02 19:45:00,
2013-03-02 14:50:00,41.5,27.5,29.65,WNW,286,7.0,14.0,57,0.00,,,0.00,130.0,meteohub,2013-03-02 19:50:00,
2013-03-02 14:55:00,41.2,27.1,29.66,NW,307,2.0,13.0,57,0.00,,,0.00,125.0,meteohub,2013-03-02 19:55:00,
2013-03-02 15:00:00,41.4,27.3,29.66,NW,307,8.0,13.0,57,0.00,,,0.00,114.0,meteohub,2013-03-02 20:00:00,
2013-03-02 15:05:00,41.2,27.1,29.65,NW,309,9.0,13.0,57,0.00,,,0.00,121.0,meteohub,2013-03-02 20:05:00,
2013-03-02 15:10:00,41.2,27.1,29.65,NW,309,4.0,11.0,57,0.00,,,0.00,128.0,meteohub,2013-03-02 20:10:00,
2013-03-02 15:15:00,40.8,28.0,29.65,West,267,5.0,11.0,60,0.00,,,0.00,113.0,meteohub,2013-03-02 20:15:00,
2013-03-02 15:20:00,41.0,27.3,29.65,WNW,300,4.0,11.0,58,0.00,,,0.00,109.0,meteohub,2013-03-02 20:20:00,
2013-03-02 15:26:00,41.5,27.9,29.65,NE,40,6.0,11.0,58,0.00,,,0.00,102.0,meteohub,2013-03-02 20:26:00,
2013-03-02 15:31:00,41.7,28.0,29.65,NW,325,8.0,9.0,58,0.00,,,0.00,100.0,meteohub,2013-03-02 20:31:00,
2013-03-02 15:36:00,41.5,27.9,29.65,NNE,19,3.0,11.0,58,0.00,,,0.00,93.0,meteohub,2013-03-02 20:36:00,
2013-03-02 15:41:00,41.5,27.9,29.65,NW,317,9.0,11.0,58,0.00,,,0.00,109.0,meteohub,2013-03-02 20:41:00,
2013-03-02 15:46:00,41.4,27.7,29.65,North,351,7.0,13.0,58,0.00,,,0.00,123.0,meteohub,2013-03-02 20:46:00,
2013-03-02 15:52:00,41.4,27.7,29.65,NW,325,7.0,13.0,58,0.00,,,0.00,123.0,meteohub,2013-03-02 20:52:00,
2013-03-02 15:57:00,41.4,27.7,29.65,NNE,15,5.0,13.0,58,0.00,,,0.00,118.0,meteohub,2013-03-02 20:57:00,
2013-03-02 16:02:00,41.4,27.7,29.65,North,0,4.0,13.0,58,0.00,,,0.00,111.0,meteohub,2013-03-02 21:02:00,
2013-03-02 16:07:00,41.2,27.5,29.65,North,0,9.0,13.0,58,0.00,,,0.00,107.0,meteohub,2013-03-02 21:07:00,
2013-03-02 16:12:00,41.0,27.9,29.65,NW,325,8.0,13.0,59,0.00,,,0.00,97.0,meteohub,2013-03-02 21:12:00,
2013-03-02 16:17:00,40.6,27.0,29.65,WNW,296,7.0,13.0,58,0.00,,,0.00,90.0,meteohub,2013-03-02 21:17:00,
2013-03-02 16:22:00,40.6,27.5,29.65,NNW,345,7.0,13.0,59,0.00,,,0.00,86.0,meteohub,2013-03-02 21:22:00,
2013-03-02 16:27:00,40.6,27.5,29.65,NW,304,6.0,13.0,59,0.00,,,0.00,74.0,meteohub,2013-03-02 21:27:00,
2013-03-02 16:32:00,40.6,27.9,29.65,NNW,332,2.0,13.0,60,0.00,,,0.00,69.0,meteohub,2013-03-02 21:32:00,
2013-03-02 16:37:00,40.6,27.9,29.65,NNW,343,2.0,11.0,60,0.00,,,0.00,69.0,meteohub,2013-03-02 21:37:00,
2013-03-02 16:42:00,40.6,27.9,29.65,NNW,329,10.0,10.0,60,0.00,,,0.00,56.0,meteohub,2013-03-02 21:42:00,
2013-03-02 16:47:00,40.5,27.7,29.65,NW,315,7.0,13.0,60,0.00,,,0.00,51.0,meteohub,2013-03-02 21:47:00,
2013-03-02 16:52:00,40.3,27.5,29.65,NW,304,8.0,13.0,60,0.00,,,0.00,46.0,meteohub,2013-03-02 21:52:00,
2013-03-02 16:57:00,40.1,27.7,29.66,NNW,331,8.0,13.0,61,0.00,,,0.00,42.0,meteohub,2013-03-02 21:57:00,
2013-03-02 17:02:00,39.9,27.5,29.66,NW,311,4.0,14.0,61,0.00,,,0.00,32.0,meteohub,2013-03-02 22:02:00,
2013-03-02 17:07:00,39.9,27.5,29.66,NW,326,9.0,14.0,61,0.00,,,0.00,26.0,meteohub,2013-03-02 22:07:00,
2013-03-02 17:12:00,39.7,27.3,29.66,NW,313,8.0,14.0,61,0.00,,,0.00,19.0,meteohub,2013-03-02 22:12:00,
2013-03-02 17:17:00,39.7,27.9,29.66,NW,322,4.0,14.0,62,0.00,,,0.00,16.0,meteohub,2013-03-02 22:17:00,
2013-03-02 17:22:00,39.4,27.5,29.67,NNW,337,13.0,14.0,62,0.00,,,0.00,12.0,meteohub,2013-03-02 22:22:00,
2013-03-02 17:27:00,39.2,27.3,29.67,WNW,298,8.0,14.0,62,0.00,,,0.00,9.0,meteohub,2013-03-02 22:27:00,
2013-03-02 17:32:00,39.0,27.5,29.67,NW,323,4.0,14.0,63,0.00,,,0.00,5.0,meteohub,2013-03-02 22:32:00,
2013-03-02 17:37:00,39.0,27.5,29.67,NNW,339,5.0,14.0,63,0.00,,,0.00,0.0,meteohub,2013-03-02 22:37:00,
2013-03-02 17:42:00,39.0,27.5,29.67,NW,325,5.0,14.0,63,0.00,,,0.00,0.0,meteohub,2013-03-02 22:42:00,
2013-03-02 17:47:00,38.8,27.3,29.67,NW,317,6.0,14.0,63,0.00,,,0.00,0.0,meteohub,2013-03-02 22:47:00,
2013-03-02 17:53:00,38.7,27.1,29.68,WNW,294,6.0,14.0,63,0.00,,,0.00,0.0,meteohub,2013-03-02 22:53:00,
2013-03-02 17:58:00,38.5,27.0,29.68,North,355,5.0,11.0,63,0.00,,,0.00,0.0,meteohub,2013-03-02 22:58:00,
2013-03-02 18:03:00,38.5,27.3,29.68,North,355,6.0,11.0,64,0.00,,,0.00,0.0,meteohub,2013-03-02 23:03:00,
2013-03-02 18:08:00,38.3,27.1,29.68,NW,322,4.0,11.0,64,0.00,,,0.00,0.0,meteohub,2013-03-02 23:08:00,
2013-03-02 18:13:00,38.3,27.1,29.68,NW,324,4.0,11.0,64,0.00,,,0.00,0.0,meteohub,2013-03-02 23:13:00,
2013-03-02 18:19:00,38.3,27.5,29.68,NNW,336,4.0,11.0,65,0.00,,,0.00,0.0,meteohub,2013-03-02 23:19:00,
2013-03-02 18:24:00,38.3,27.1,29.68,NW,314,6.0,9.0,64,0.00,,,0.00,0.0,meteohub,2013-03-02 23:24:00,
2013-03-02 18:29:00,38.1,27.3,29.68,NW,312,4.0,9.0,65,0.00,,,0.00,0.0,meteohub,2013-03-02 23:29:00,
2013-03-02 18:34:00,38.1,27.0,29.68,NW,319,8.0,9.0,64,0.00,,,0.00,0.0,meteohub,2013-03-02 23:34:00,
2013-03-02 18:39:00,38.1,27.0,29.68,NW,324,6.0,9.0,64,0.00,,,0.00,0.0,meteohub,2013-03-02 23:39:00,
2013-03-02 18:44:00,38.1,27.0,29.69,NW,321,8.0,11.0,64,0.00,,,0.00,0.0,meteohub,2013-03-02 23:44:00,
2013-03-02 18:50:00,37.9,27.1,29.68,NNW,331,9.0,11.0,65,0.00,,,0.00,0.0,meteohub,2013-03-02 23:50:00,
2013-03-02 18:55:00,37.9,27.1,29.69,NNW,331,5.0,11.0,65,0.00,,,0.00,0.0,meteohub,2013-03-02 23:55:00,
2013-03-02 19:00:00,37.9,27.1,29.69,NW,315,5.0,11.0,65,0.00,,,0.00,0.0,meteohub,2013-03-03 00:00:00,
2013-03-02 19:05:00,37.8,27.1,29.69,NW,317,6.0,13.0,65,0.00,,,0.00,0.0,meteohub,2013-03-03 00:05:00,
2013-03-02 19:10:00,37.8,27.1,29.69,NNW,329,6.0,14.0,65,0.00,,,0.00,0.0,meteohub,2013-03-03 00:10:00,
2013-03-02 19:15:00,37.8,27.1,29.68,NW,322,6.0,14.0,65,0.00,,,0.00,0.0,meteohub,2013-03-03 00:15:00,
2013-03-02 19:20:00,37.6,27.0,29.68,WNW,302,7.0,14.0,65,0.00,,,0.00,0.0,meteohub,2013-03-03 00:20:00,
2013-03-02 19:26:00,37.6,27.0,29.68,NW,319,4.0,14.0,65,0.00,,,0.00,0.0,meteohub,2013-03-03 00:26:00,
2013-03-02 19:31:00,37.4,26.8,29.68,NW,315,5.0,14.0,65,0.00,,,0.00,0.0,meteohub,2013-03-03 00:31:00,
2013-03-02 19:36:00,37.4,27.1,29.68,WNW,302,7.0,14.0,66,0.00,,,0.00,0.0,meteohub,2013-03-03 00:36:00,
2013-03-02 19:41:00,37.2,27.0,29.68,WNW,294,5.0,13.0,66,0.00,,,0.00,0.0,meteohub,2013-03-03 00:41:00,
2013-03-02 19:46:00,37.2,27.0,29.68,WNW,303,5.0,12.0,66,0.00,,,0.00,0.0,meteohub,2013-03-03 00:46:00,
2013-03-02 19:51:00,37.2,27.0,29.68,NNW,342,4.0,12.0,66,0.00,,,0.00,0.0,meteohub,2013-03-03 00:51:00,
2013-03-02 19:57:00,37.2,27.0,29.68,NW,325,7.0,10.0,66,0.00,,,0.00,0.0,meteohub,2013-03-03 00:57:00,
2013-03-02 20:02:00,37.2,27.0,29.68,WNW,303,9.0,10.0,66,0.00,,,0.00,0.0,meteohub,2013-03-03 01:02:00,
2013-03-02 20:07:00,37.2,27.3,29.69,NNW,339,7.0,13.0,67,0.00,,,0.00,0.0,meteohub,2013-03-03 01:07:00,
2013-03-02 20:12:00,37.2,27.3,29.68,NNW,336,2.0,13.0,67,0.00,,,0.00,0.0,meteohub,2013-03-03 01:12:00,
2013-03-02 20:17:00,37.2,27.3,29.68,NW,314,4.0,13.0,67,0.00,,,0.00,0.0,meteohub,2013-03-03 01:17:00,
2013-03-02 20:22:00,37.2,27.3,29.68,NNW,331,4.0,11.0,67,0.00,,,0.00,0.0,meteohub,2013-03-03 01:22:00,
2013-03-02 20:27:00,37.0,27.1,29.69,North,349,4.0,9.0,67,0.00,,,0.00,0.0,meteohub,2013-03-03 01:27:00,
2013-03-02 20:32:00,37.0,27.1,29.69,WNW,297,9.0,13.0,67,0.00,,,0.00,0.0,meteohub,2013-03-03 01:32:00,
2013-03-02 20:37:00,37.0,27.1,29.68,North,5,4.0,15.0,67,0.00,,,0.00,0.0,meteohub,2013-03-03 01:37:00,
2013-03-02 20:42:00,36.9,27.0,29.69,North,0,4.0,15.0,67,0.00,,,0.00,0.0,meteohub,2013-03-03 01:42:00,
2013-03-02 20:47:00,36.9,27.0,29.69,NNE,12,11.0,13.0,67,0.00,,,0.00,0.0,meteohub,2013-03-03 01:47:00,
2013-03-02 20:52:00,36.9,27.3,29.69,NW,322,10.0,13.0,68,0.00,,,0.00,0.0,meteohub,2013-03-03 01:52:00,
2013-03-02 20:57:00,36.9,27.3,29.69,NNW,348,6.0,13.0,68,0.00,,,0.00,0.0,meteohub,2013-03-03 01:57:00,
2013-03-02 21:02:00,36.9,27.3,29.69,North,355,4.0,12.0,68,0.00,,,0.00,0.0,meteohub,2013-03-03 02:02:00,
2013-03-02 21:07:00,36.7,28.6,29.69,NNW,336,8.0,12.0,72,0.00,,,0.00,0.0,meteohub,2013-03-03 02:07:00,
2013-03-02 21:12:00,36.7,27.5,29.69,NNW,342,7.0,12.0,69,0.00,,,0.00,0.0,meteohub,2013-03-03 02:12:00,
2013-03-02 21:17:00,36.5,27.0,29.68,NW,315,9.0,12.0,68,0.00,,,0.00,0.0,meteohub,2013-03-03 02:17:00,
2013-03-02 21:22:00,36.3,27.1,29.68,NNW,329,5.0,15.0,69,0.00,,,0.00,0.0,meteohub,2013-03-03 02:22:00,
2013-03-02 21:27:00,36.3,27.1,29.68,NNW,327,11.0,15.0,69,0.00,,,0.00,0.0,meteohub,2013-03-03 02:27:00,
2013-03-02 21:32:00,36.1,27.0,29.68,NNW,333,8.0,15.0,69,0.00,,,0.00,0.0,meteohub,2013-03-03 02:32:00,
2013-03-02 21:37:00,36.1,27.0,29.68,NNW,346,10.0,15.0,69,0.00,,,0.00,0.0,meteohub,2013-03-03 02:37:00,
2013-03-02 21:43:00,36.1,27.0,29.68,WNW,302,9.0,15.0,69,0.00,,,0.00,0.0,meteohub,2013-03-03 02:43:00,
2013-03-02 21:48:00,36.1,27.0,29.68,NNW,348,5.0,14.0,69,0.00,,,0.00,0.0,meteohub,2013-03-03 02:48:00,
2013-03-02 21:53:00,36.0,26.8,29.68,North,355,4.0,14.0,69,0.00,,,0.00,0.0,meteohub,2013-03-03 02:53:00,
2013-03-02 21:58:00,36.0,27.1,29.68,NW,323,5.0,14.0,70,0.00,,,0.00,0.0,meteohub,2013-03-03 02:58:00,
2013-03-02 22:03:00,36.0,26.8,29.68,NNW,347,4.0,12.0,69,0.00,,,0.00,0.0,meteohub,2013-03-03 03:03:00,
2013-03-02 22:08:00,36.0,26.8,29.68,North,0,6.0,12.0,69,0.00,,,0.00,0.0,meteohub,2013-03-03 03:08:00,
2013-03-02 22:13:00,35.8,26.6,29.67,North,350,9.0,14.0,69,0.00,,,0.00,0.0,meteohub,2013-03-03 03:13:00,
2013-03-02 22:19:00,35.8,27.0,29.67,North,355,8.0,14.0,70,0.00,,,0.00,0.0,meteohub,2013-03-03 03:19:00,
2013-03-02 22:24:00,35.8,27.0,29.67,NNW,348,12.0,20.0,70,0.00,,,0.00,0.0,meteohub,2013-03-03 03:24:00,
2013-03-02 22:29:00,35.6,26.8,29.67,NW,321,9.0,20.0,70,0.00,,,0.00,0.0,meteohub,2013-03-03 03:29:00,
2013-03-02 22:34:00,35.4,26.6,29.67,NNW,336,7.0,19.0,70,0.00,,,0.00,0.0,meteohub,2013-03-03 03:34:00,
2013-03-02 22:39:00,35.4,26.6,29.67,NNW,336,5.0,21.0,70,0.00,,,0.00,0.0,meteohub,2013-03-03 03:39:00,
2013-03-02 22:44:00,35.4,26.6,29.67,North,9,6.0,21.0,70,0.00,,,0.00,0.0,meteohub,2013-03-03 03:44:00,
2013-03-02 22:49:00,35.2,26.4,29.67,NNE,13,11.0,21.0,70,0.00,,,0.00,0.0,meteohub,2013-03-03 03:49:00,
2013-03-02 22:54:00,35.2,26.8,29.67,North,5,8.0,13.0,71,0.00,,,0.00,0.0,meteohub,2013-03-03 03:54:00,
2013-03-02 22:59:00,35.2,26.8,29.67,NNW,338,11.0,13.0,71,0.00,,,0.00,0.0,meteohub,2013-03-03 03:59:00,
2013-03-02 23:04:00,35.2,27.1,29.66,North,355,6.0,14.0,72,0.00,,,0.00,0.0,meteohub,2013-03-03 04:04:00,
2013-03-02 23:10:00,35.1,27.0,29.66,NW,315,7.0,14.0,72,0.00,,,0.00,0.0,meteohub,2013-03-03 04:10:00,
2013-03-02 23:15:00,35.1,27.0,29.66,NNW,337,13.0,16.0,72,0.00,,,0.00,0.0,meteohub,2013-03-03 04:15:00,
2013-03-02 23:20:00,34.9,26.8,29.66,NW,321,9.0,16.0,72,0.00,,,0.00,0.0,meteohub,2013-03-03 04:20:00,
2013-03-02 23:25:00,34.9,27.1,29.66,North,9,6.0,16.0,73,0.00,,,0.00,0.0,meteohub,2013-03-03 04:25:00,
2013-03-02 23:30:00,34.9,27.1,29.66,NNW,334,11.0,13.0,73,0.00,,,0.00,0.0,meteohub,2013-03-03 04:30:00,
2013-03-02 23:35:00,34.5,26.8,29.66,NW,318,6.0,14.0,73,0.00,,,0.00,0.0,meteohub,2013-03-03 04:35:00,
2013-03-02 23:40:00,34.5,26.8,29.66,NNW,348,12.0,14.0,73,0.00,,,0.00,0.0,meteohub,2013-03-03 04:40:00,
2013-03-02 23:45:00,34.3,27.0,29.66,North,5,7.0,17.0,74,0.00,,,0.00,0.0,meteohub,2013-03-03 04:45:00,
2013-03-02 23:51:00,34.3,27.0,29.66,NNW,332,6.0,17.0,74,0.00,,,0.00,0.0,meteohub,2013-03-03 04:51:00,
2013-03-02 23:56:00,34.2,26.8,29.66,NNW,338,8.0,17.0,74,0.00,,,0.00,0.0,meteohub,2013-03-03 04:56:00,